| time (UTC) | temp F | wind direction | speed MPH | gust MPH | rain 1hr in | rain 24hr in | rain mn in | humidity % | barometer mb |
| 20260503021238 | 51 | 289 | 2.0 | 4.0 | 0.00 | 0.00 | 0.00 | 50 | 1011.4 |
| 20260503020237 | 52 | 292 | 2.0 | 4.0 | 0.00 | 0.00 | 0.00 | 49 | 1011.4 |
| 20260503015236 | 52 | 292 | 1.0 | 2.0 | 0.00 | 0.00 | 0.00 | 48 | 1011.4 |
| 20260503014235 | 52 | 292 | 1.0 | 2.0 | 0.00 | 0.00 | 0.00 | 48 | 1011.1 |
| 20260503013204 | 52 | 302 | 2.0 | 3.0 | 0.00 | 0.00 | 0.00 | 48 | 1011.1 |
| 20260503012132 | 52 | 290 | 2.0 | 3.0 | 0.00 | 0.00 | 0.00 | 47 | 1011.0 |
| 20260503011131 | 53 | 289 | 0.0 | 3.0 | 0.00 | 0.00 | 0.00 | 48 | 1011.0 |
| 20260503010130 | 53 | 288 | 0.0 | 2.0 | 0.00 | 0.00 | 0.00 | 47 | 1011.0 |
| 20260503005130 | 53 | 288 | 1.0 | 2.0 | 0.00 | 0.00 | 0.00 | 46 | 1010.7 |
| 20260503004129 | 53 | 288 | 2.0 | 3.0 | 0.00 | 0.00 | 0.00 | 46 | 1010.7 |
| 20260503003129 | 53 | 287 | 1.0 | 3.0 | 0.00 | 0.00 | 0.00 | 46 | 1010.7 |
| 20260503002128 | 54 | 289 | 0.0 | 0.0 | 0.00 | 0.00 | 0.00 | 45 | 1010.4 |
| 20260503001128 | 54 | 284 | 0.0 | 0.0 | 0.00 | 0.00 | 0.00 | 44 | 1010.4 |
| 20260503000127 | 54 | 284 | 0.0 | 0.0 | 0.00 | 0.00 | 0.00 | 44 | 1010.4 |
| 20260502235126 | 55 | 284 | 0.0 | 0.0 | 0.00 | 0.00 | 0.00 | 43 | 1010.4 |
| 20260502234126 | 55 | 281 | 2.0 | 4.0 | 0.00 | 0.00 | 0.00 | 43 | 1010.0 |
| 20260502233054 | 55 | 279 | 1.0 | 3.0 | 0.00 | 0.00 | 0.00 | 42 | 1010.0 |
| 20260502232053 | 56 | 223 | 1.0 | 3.0 | 0.00 | 0.00 | 0.00 | 42 | 1010.0 |
| 20260502231053 | 56 | 280 | 3.0 | 6.0 | 0.00 | 0.00 | 0.00 | 41 | 1010.0 |
| 20260502230052 | 56 | 292 | 3.0 | 5.0 | 0.00 | 0.00 | 0.00 | 42 | 1010.0 |
| 20260502225051 | 57 | 289 | 2.0 | 6.0 | 0.00 | 0.00 | 0.00 | 41 | 1010.0 |
| 20260502224051 | 56 | 276 | 4.0 | 7.0 | 0.00 | 0.00 | 0.00 | 42 | 1010.0 |
| 20260502223050 | 57 | 297 | 2.0 | 4.0 | 0.00 | 0.00 | 0.00 | 42 | 1010.0 |
| 20260502222049 | 57 | 298 | 2.0 | 9.0 | 0.00 | 0.00 | 0.00 | 41 | 1010.0 |
| 20260502221049 | 59 | 290 | 3.0 | 6.0 | 0.00 | 0.00 | 0.00 | 40 | 1010.1 |
| 20260502220048 | 60 | 282 | 4.0 | 5.0 | 0.00 | 0.00 | 0.00 | 38 | 1009.7 |
| 20260502215048 | 59 | 299 | 2.0 | 3.0 | 0.00 | 0.00 | 0.00 | 41 | 1009.7 |
| 20260502214047 | 59 | 349 | 1.0 | 5.0 | 0.00 | 0.00 | 0.00 | 40 | 1010.1 |
| 20260502213046 | 59 | 279 | 2.0 | 4.0 | 0.00 | 0.00 | 0.00 | 41 | 1010.1 |
| 20260502212015 | 60 | 295 | 3.0 | 6.0 | 0.00 | 0.00 | 0.00 | 40 | 1009.8 |
| 20260502211014 | 59 | 295 | 1.0 | 5.0 | 0.00 | 0.00 | 0.00 | 41 | 1009.8 |
| 20260502210014 | 60 | 298 | 3.0 | 5.0 | 0.00 | 0.00 | 0.00 | 40 | 1009.4 |
| 20260502205013 | 61 | 19 | 1.0 | 7.0 | 0.00 | 0.00 | 0.00 | 40 | 1009.5 |
| 20260502203941 | 61 | 288 | 4.0 | 7.0 | 0.00 | 0.00 | 0.00 | 39 | 1009.5 |
| 20260502202941 | 61 | 358 | 2.0 | 3.0 | 0.00 | 0.00 | 0.00 | 38 | 1009.5 |
| 20260502201940 | 60 | 342 | 1.0 | 3.0 | 0.00 | 0.00 | 0.00 | 43 | 1009.8 |
| 20260502200939 | 60 | 277 | 2.0 | 4.0 | 0.00 | 0.00 | 0.00 | 41 | 1009.8 |
| 20260502195908 | 61 | 352 | 2.0 | 5.0 | 0.00 | 0.00 | 0.00 | 40 | 1009.8 |
| 20260502194836 | 62 | 23 | 2.0 | 5.0 | 0.00 | 0.00 | 0.00 | 39 | 1010.2 |
| 20260502193836 | 62 | 281 | 1.0 | 6.0 | 0.00 | 0.00 | 0.00 | 44 | 1010.2 |
| 20260502192835 | 61 | 343 | 3.0 | 5.0 | 0.00 | 0.00 | 0.00 | 40 | 1010.5 |
| 20260502191804 | 62 | 310 | 2.0 | 4.0 | 0.00 | 0.00 | 0.00 | 40 | 1010.5 |
| 20260502190804 | 62 | 276 | 3.0 | 5.0 | 0.00 | 0.00 | 0.00 | 41 | 1010.8 |
| 20260502185803 | 61 | 292 | 2.0 | 6.0 | 0.00 | 0.00 | 0.00 | 45 | 1010.8 |
| 20260502184802 | 60 | 335 | 1.0 | 8.0 | 0.00 | 0.00 | 0.00 | 44 | 1011.1 |
| 20260502183801 | 60 | 291 | 3.0 | 6.0 | 0.00 | 0.00 | 0.00 | 43 | 1011.2 |
| 20260502182801 | 61 | 297 | 2.0 | 5.0 | 0.00 | 0.00 | 0.00 | 40 | 1011.2 |
| 20260502181800 | 60 | 26 | 2.0 | 6.0 | 0.00 | 0.00 | 0.00 | 44 | 1011.2 |
| 20260502180759 | 59 | 355 | 3.0 | 6.0 | 0.00 | 0.00 | 0.00 | 42 | 1011.2 |
| 20260502163723 | 58 | 289 | 4.0 | 6.0 | 0.00 | 0.00 | 0.00 | 51 | 1011.8 |
| 20260502162722 | 57 | 350 | 2.0 | 5.0 | 0.00 | 0.00 | 0.00 | 51 | 1012.2 |
| 20260502161722 | 56 | 341 | 2.0 | 7.0 | 0.00 | 0.00 | 0.00 | 51 | 1012.2 |
| 20260502160721 | 56 | 295 | 2.0 | 6.0 | 0.00 | 0.00 | 0.00 | 53 | 1012.5 |
| 20260502151718 | 55 | 307 | 4.0 | 8.0 | 0.00 | 0.00 | 0.00 | 63 | 1012.2 |
| 20260502150718 | 54 | 308 | 2.0 | 5.0 | 0.00 | 0.00 | 0.00 | 65 | 1012.1 |
| 20260502130608 | 50 | 288 | 2.0 | 5.0 | 0.00 | 0.00 | 0.00 | 77 | 1012.1 |
| 20260502123535 | 49 | 288 | 3.0 | 6.0 | 0.00 | 0.00 | 0.00 | 79 | 1012.1 |
| 20260502122534 | 49 | 288 | 3.0 | 7.0 | 0.00 | 0.00 | 0.00 | 79 | 1012.1 |
| 20260502121533 | 49 | 284 | 4.0 | 7.0 | 0.00 | 0.00 | 0.00 | 79 | 1012.1 |
| 20260502120502 | 49 | 293 | 2.0 | 4.0 | 0.00 | 0.00 | 0.00 | 80 | 1011.8 |
| 20260502115501 | 49 | 288 | 1.0 | 3.0 | 0.00 | 0.00 | 0.00 | 80 | 1011.8 |
| 20260502114500 | 49 | 348 | 2.0 | 5.0 | 0.00 | 0.00 | 0.00 | 80 | 1011.8 |
| 20260502113459 | 48 | 284 | 1.0 | 3.0 | 0.00 | 0.00 | 0.00 | 80 | 1011.8 |
| 20260502112459 | 48 | 49 | 2.0 | 3.0 | 0.00 | 0.00 | 0.00 | 80 | 1011.8 |
| 20260502111427 | 48 | 281 | 1.0 | 4.0 | 0.00 | 0.00 | 0.00 | 80 | 1011.8 |
| 20260502110426 | 47 | 294 | 2.0 | 5.0 | 0.00 | 0.00 | 0.00 | 81 | 1011.5 |
| 20260502105426 | 47 | 280 | 1.0 | 3.0 | 0.00 | 0.00 | 0.00 | 81 | 1011.5 |
| 20260502104425 | 47 | 279 | 0.0 | 3.0 | 0.00 | 0.00 | 0.00 | 81 | 1011.2 |
| 20260502103425 | 46 | 277 | 2.0 | 3.0 | 0.00 | 0.00 | 0.00 | 82 | 1011.2 |
| 20260502102424 | 46 | 304 | 0.0 | 0.0 | 0.00 | 0.00 | 0.00 | 82 | 1011.2 |
| 20260502101423 | 46 | 304 | 0.0 | 0.0 | 0.00 | 0.00 | 0.00 | 82 | 1011.2 |
| 20260502100423 | 47 | 304 | 0.0 | 0.0 | 0.00 | 0.00 | 0.00 | 81 | 1011.2 |
| 20260502091420 | 48 | 304 | 0.0 | 0.0 | 0.00 | 0.00 | 0.00 | 80 | 1011.2 |
| 20260502090420 | 48 | 304 | 0.0 | 0.0 | 0.00 | 0.00 | 0.00 | 80 | 1011.2 |
| 20260502071046 | 50 | 355 | 0.0 | 0.0 | 0.00 | 0.00 | 0.00 | 78 | 1011.2 |
| 20260502070045 | 50 | 355 | 0.0 | 0.0 | 0.00 | 0.00 | 0.00 | 78 | 1011.2 |
| 20260502065044 | 50 | 355 | 0.0 | 0.0 | 0.00 | 0.00 | 0.00 | 77 | 1011.3 |
| 20260502064013 | 51 | 355 | 0.0 | 1.0 | 0.00 | 0.00 | 0.00 | 77 | 1011.3 |
| 20260502063012 | 51 | 355 | 0.0 | 0.0 | 0.00 | 0.00 | 0.00 | 77 | 1011.3 |
| 20260502061940 | 51 | 355 | 0.0 | 0.0 | 0.00 | 0.00 | 0.00 | 76 | 1011.3 |
| 20260502060940 | 52 | 355 | 0.0 | 0.0 | 0.00 | 0.00 | 0.00 | 76 | 1011.3 |
| 20260502055939 | 52 | 355 | 0.0 | 0.0 | 0.00 | 0.00 | 0.00 | 75 | 1011.3 |
| 20260502054939 | 53 | 355 | 0.0 | 0.0 | 0.00 | 0.00 | 0.00 | 74 | 1011.6 |
| 20260502053938 | 53 | 355 | 0.0 | 0.0 | 0.00 | 0.00 | 0.00 | 73 | 1011.6 |
| 20260502052938 | 53 | 355 | 0.0 | 2.0 | 0.00 | 0.00 | 0.00 | 73 | 1011.9 |
| 20260502051937 | 53 | 22 | 1.0 | 1.0 | 0.00 | 0.00 | 0.00 | 73 | 1011.9 |
| 20260502050936 | 53 | 22 | 0.0 | 2.0 | 0.00 | 0.00 | 0.00 | 73 | 1011.6 |
| 20260502045936 | 53 | 22 | 0.0 | 2.0 | 0.00 | 0.00 | 0.00 | 72 | 1011.6 |
| 20260502044935 | 53 | 333 | 2.0 | 2.0 | 0.00 | 0.00 | 0.00 | 73 | 1011.6 |
| 20260502043934 | 53 | 329 | 2.0 | 3.0 | 0.00 | 0.00 | 0.00 | 74 | 1011.6 |
| 20260502042902 | 53 | 34 | 1.0 | 3.0 | 0.00 | 0.00 | 0.00 | 74 | 1011.2 |
| 20260502041902 | 53 | 340 | 2.0 | 4.0 | 0.00 | 0.00 | 0.00 | 74 | 1011.2 |
| 20260502040901 | 53 | 344 | 2.0 | 2.0 | 0.00 | 0.00 | 0.00 | 74 | 1011.2 |
| 20260502035901 | 54 | 342 | 0.0 | 0.0 | 0.00 | 0.00 | 0.00 | 74 | 1011.2 |
| 20260502034900 | 54 | 342 | 0.0 | 0.0 | 0.00 | 0.00 | 0.00 | 73 | 1011.2 |
| 20260502033900 | 54 | 342 | 0.0 | 0.0 | 0.00 | 0.00 | 0.00 | 72 | 1011.2 |
| 20260502032859 | 54 | 342 | 0.0 | 2.0 | 0.00 | 0.00 | 0.00 | 72 | 1010.9 |
| 20260502031858 | 54 | 342 | 1.0 | 3.0 | 0.00 | 0.00 | 0.00 | 70 | 1010.9 |
| 20260502030858 | 54 | 28 | 2.0 | 3.0 | 0.00 | 0.00 | 0.00 | 70 | 1010.9 |
| 20260502025857 | 54 | 5 | 0.0 | 2.0 | 0.00 | 0.00 | 0.00 | 68 | 1011.2 |
| 20260502024857 | 54 | 5 | 1.0 | 5.0 | 0.00 | 0.00 | 0.00 | 68 | 1011.2 |
| 20260502023856 | 54 | 329 | 1.0 | 1.0 | 0.00 | 0.00 | 0.00 | 67 | 1011.2 |
| 20260502022855 | 54 | 25 | 1.0 | 3.0 | 0.00 | 0.00 | 0.00 | 67 | 1011.2 |